Location: Eboldshausen
(51.7766°N, 10.0050°E)
Time: 15:27:58
(UTC+00:00)

COSMO-SKYMED 1 - Pass Details

Date: 15 November 2025
Orbit: 579 x 581 km, 97.9° (Epoch: 12 December)

Event Time Altitude Azimuth Distance (km) Brightness Sun altitude
Exits shadow 18:46:40 33° 288° (WNW) 997 4.1 -30.3°
Drops below altitude 10° 18:50:09 10° 231° (SW) 1,895 5.5 -30.8°
Sets 18:52:27 0° 221° (SW) 2,790 6.3 -31.2°
